Wind_Speed
4 6 11 16 19 22 26 30 31 32 35 38 40 40 43 49 47 47 49 48 48 48 48 48 47 47 47 47 46 44 45 44 43 42 41 40 39 38 37 36 35 35 34 33
4 5 9 14 17 18 22 27 29 29 32 34 39 40 41 45 46 45 47 49 48 48 47 47 48 49 48 46 47 46 45 46 47 46 44 42 41 40 38 38 37 37 36 36
4 5 9 12 15 17 20 23 26 27 29 31 34 38 39 41 45 46 46 47 47 47 46 46 47 47 48 49 48 47 46 46 46 46 45 44 43 42 41 40 40 39 37 37
3 5 9 11 13 16 18 22 24 25 26 28 31 34 38 40 41 44 45 46 47 47 47 46 47 47 48 48 49 49 48 48 47 47 47 46 45 44 43 42 42 40 40 39
4 4 8 11 13 15 17 20 22 24 26 26 27 31 33 37 40 42 45 45 45 46 47 48 48 48 48 49 49 50 50 49 48 48 47 46 45 44 43 43 42 41 41 41
7 5 6 9 11 13 15 17 19 22 24 25 25 28 29 32 35 38 41 44 44 44 45 47 48 49 48 49 50 50 51 50 49 49 48 47 46 45 44 44 44 43 43 43
9 6 6 7 9 11 13 14 15 18 21 22 23 25 26 29 32 35 37 40 43 45 46 47 48 49 50 49 50 50 50 51 51 50 49 49 48 48 47 46 45 45 45 45
9 7 7 7 8 9 11 12 13 14 16 18 20 21 22 25 29 31 34 37 39 41 44 46 48 49 50 50 50 51 51 50 51 50 50 49 50 49 49 49 48 48 48 48
11 9 7 6 7 9 9 10 10 11 13 15 18 19 19 21 27 31 33 35 37 40 41 44 47 48 50 51 51 51 52 52 52 52 52 51 51 51 51 51 51 50 49 49
10 9 7 5 6 7 8 8 9 10 11 12 14 17 18 18 22 27 32 35 36 39 41 43 46 47 48 49 51 51 51 51 51 52 53 53 53 53 52 51 52 52 52 51
10 8 6 5 5 6 6 8 8 9 11 12 13 16 18 19 20 23 28 32 34 37 39 42 45 46 47 48 49 51 51 51 51 51 51 52 53 53 52 52 52 52 52 52
9 8 6 4 3 4 5 5 6 7 9 11 12 13 16 19 21 21 24 27 30 33 36 39 42 44 46 47 48 48 50 51 51 50 50 50 50 51 51 51 52 52 51 51
8 7 5 3 2 1 1 2 4 6 8 10 12 13 16 19 22 23 24 26 28 30 33 36 38 41 43 45 46 47 48 48 49 49 49 49 49 49 50 50 50 50 49 50
5 6 5 2 1 0 2 4 6 7 7 9 12 14 16 19 21 22 24 26 28 30 33 35 36 38 39 41 43 44 44 45 46 47 46 47 47 47 47 48 48 48 48 48
4 4 4 2 2 2 3 5 6 8 9 10 12 14 15 17 19 21 23 25 27 28 30 32 35 36 37 38 40 42 42 42 43 43 44 44 44 45 45 45 46 46 46 46
4 4 4 4 5 5 6 7 8 9 11 13 13 14 16 16 17 19 21 23 26 28 30 32 33 35 36 36 38 39 40 41 41 42 42 42 42 43 43 43 44 44 44 44
5 5 6 6 7 7 8 9 10 11 12 14 15 16 18 18 18 18 20 22 25 27 28 29 31 33 34 35 37 38 39 40 40 40 41 41 42 42 42 43 43 43 43 43
7 8 8 8 9 9 10 11 12 13 14 15 15 16 17 18 18 19 20 22 24 26 27 27 29 31 32 34 36 37 39 40 40 39 39 40 41 42 42 42 42 42 42 42
10 10 10 10 10 11 11 13 14 15 15 16 17 18 19 19 19 19 20 22 23 25 26 27 29 32 32 33 35 36 37 39 40 40 40 40 41 41 41 41 41 41 42 42
11 12 12 13 13 14 14 16 17 18 18 19 19 19 20 20 21 20 20 21 23 25 26 27 29 30 32 32 34 35 35 37 38 39 39 39 40 40 40 40 40 40 40 41
12 13 14 15 16 16 17 17 18 19 20 20 21 21 21 21 22 22 22 22 23 24 26 27 28 29 30 31 32 33 34 35 36 37 38 38 38 38 39 38 38 39 39 40
13 15 16 17 17 18 19 20 20 21 22 22 22 22 22 22 23 23 24 24 24 25 26 27 28 29 30 30 31 32 33 33 34 35 36 37 37 37 38 38 38 39 39 39
14 16 17 18 18 19 20 21 22 23 24 24 24 24 24 24 24 24 25 25 26 26 26 27 28 28 29 29 30 30 31 33 33 34 35 35 36 36 37 37 38 38 38 38
15 17 18 18 19 21 21 23 24 25 26 26 26 25 25 25 25 26 26 27 27 27 27 27 27 28 29 29 29 30 30 31 32 33 34 34 35 35 36 36 36 36 36 36
18 19 19 19 20 21 22 24 25 27 27 28 27 27 27 26 26 27 28 28 28 28 28 28 27 28 29 29 29 29 30 31 31 32 32 33 33 33 34 34 35 36 36 35
21 21 22 22 23 23 24 26 27 28 29 29 29 29 28 28 28 29 29 29 28 28 27 28 28 28 29 29 29 29 30 30 31 31 32 32 32 32 33 33 34 34 34 34
Wind_Direction
143 171 186 191 198 202 206 208 210 212 210 211 212 211 211 213 211 212 213 213 214 216 220 221 222 223 225 226 227 227 228 230 231 233 236 238 238 239 242 244 247 249 252 254
140 159 180 186 191 196 203 205 209 212 213 215 214 212 213 214 213 212 213 216 216 216 219 222 223 224 225 226 228 229 231 233 235 236 237 240 241 241 244 247 249 252 255 257
145 171 179 185 192 197 203 206 209 212 214 218 219 218 217 218 218 216 214 216 217 219 221 224 225 226 228 228 229 231 233 234 236 238 239 242 244 246 247 250 251 253 255 257
137 183 186 188 194 200 204 208 211 213 215 217 222 224 221 220 221 219 216 216 219 223 223 224 227 228 230 231 233 233 235 237 238 240 241 243 245 248 249 250 252 254 257 259
77 156 182 188 191 196 200 205 210 214 217 218 222 226 221 222 222 221 219 219 221 224 226 227 228 230 232 232 234 235 237 237 239 241 241 244 246 248 250 252 253 256 258 260
69 111 157 174 180 189 194 200 208 214 218 221 223 227 224 224 225 224 224 224 225 227 228 228 229 230 232 233 234 235 237 239 240 242 244 245 246 247 250 252 254 257 259 262
67 90 134 161 169 179 187 196 204 211 218 222 224 229 227 227 227 228 228 230 230 230 231 231 232 233 233 234 236 237 239 241 242 243 245 246 248 249 251 253 255 258 261 263
63 79 111 146 163 171 176 190 199 205 213 219 223 229 228 229 228 227 229 230 232 233 233 233 234 235 236 236 238 239 240 242 243 245 247 248 249 251 253 255 257 259 261 262
64 74 99 125 153 163 169 177 188 202 208 217 225 227 227 230 231 230 232 234 235 234 234 234 235 236 237 237 238 239 241 242 244 246 247 249 250 252 254 256 258 260 262 263
58 62 81 115 144 155 166 182 192 206 217 222 228 231 233 233 234 234 235 236 238 237 237 236 236 235 236 237 238 239 240 242 244 246 247 249 251 253 254 256 258 260 262 264
54 55 65 93 128 150 165 191 207 219 230 238 240 241 241 238 237 236 235 236 238 238 238 237 237 236 237 237 238 239 241 242 244 246 248 250 252 253 255 256 258 261 262 264
53 55 63 81 109 146 170 194 220 233 240 246 251 246 241 241 240 239 238 237 238 238 239 238 237 237 237 238 239 240 241 243 245 246 248 250 251 253 255 257 258 260 262 263
46 49 58 74 87 138 205 269 268 263 261 256 257 257 250 247 246 245 243 241 239 239 238 238 239 239 239 239 240 241 242 243 244 246 248 249 250 252 254 255 257 259 261 263
31 33 37 48 68 94 285 295 288 282 275 267 263 262 257 254 249 246 245 243 240 239 239 238 239 239 240 240 239 240 241 242 244 245 246 248 250 251 254 256 258 259 261 263
5 5 5 2 325 317 310 306 293 283 278 282 278 271 268 264 256 251 247 244 241 241 241 240 239 238 239 239 239 239 240 240 242 244 245 248 250 252 254 255 257 259 260 262
332 331 325 312 299 299 292 295 292 285 280 284 286 281 277 273 265 257 252 248 245 243 243 241 240 239 238 238 239 239 239 239 241 243 245 247 250 252 254 256 257 259 260 262
308 311 302 293 287 288 287 286 289 291 290 287 287 287 283 278 268 262 258 254 250 248 247 244 242 241 240 240 240 241 241 240 242 243 245 248 250 252 255 256 257 259 260 262
300 301 300 293 286 283 286 285 291 295 295 293 291 289 287 282 273 268 264 260 256 252 250 246 244 243 242 241 242 242 243 243 243 244 246 249 251 253 255 256 257 258 260 262
297 296 295 293 288 286 283 283 288 293 296 296 293 288 287 284 279 274 267 263 259 256 252 249 248 245 245 244 245 245 245 245 245 246 248 250 252 253 254 256 257 259 260 262
301 295 293 292 289 288 284 285 288 291 294 296 295 293 289 286 282 277 271 267 263 260 256 254 253 250 248 247 247 247 247 247 247 247 249 251 252 253 255 257 258 259 261 263
312 303 296 293 292 290 287 288 291 293 295 296 294 292 290 287 284 280 275 270 267 263 259 258 256 254 251 249 248 248 248 248 248 249 250 252 253 254 255 257 258 260 262 264
315 308 302 297 294 293 292 291 293 294 294 295 294 292 289 287 284 280 276 274 271 266 263 262 258 256 253 251 249 250 250 249 250 250 251 253 254 255 256 257 259 261 263 265
319 312 306 301 298 296 297 295 294 294 294 294 293 291 290 287 282 278 275 275 272 270 266 265 260 256 255 253 252 252 252 251 252 251 252 254 255 256 257 258 260 262 264 266
323 316 312 306 301 298 298 297 295 294 294 293 292 291 289 286 283 278 276 274 272 271 268 265 260 255 254 253 253 253 252 251 252 253 254 255 256 257 258 259 260 262 263 266
323 318 315 311 307 304 302 300 298 296 295 293 292 291 289 285 282 280 278 276 274 272 268 264 259 256 255 254 255 254 254 253 252 253 254 255 256 257 258 259 260 261 263 265
322 319 315 312 309 308 306 304 303 300 297 294 292 291 290 287 284 281 279 277 274 270 267 264 259 257 256 254 255 255 255 255 254 255 255 256 256 257 259 260 261 262 263 265
Height
5618 5621 5623 5626 5631 5635 5640 5645 5651 5657 5662 5669 5676 5683 5690 5696 5704 5711 5718 5726 5734 5741 5747 5753 5759 5765 5771 5777 5782 5787 5792 5796 5801 5804 5808 5811 5814 5817 5820 5822 5825 5827 5829 5831
5621 5622 5624 5626 5630 5634 5639 5644 5649 5654 5659 5666 5672 5679 5685 5691 5699 5706 5713 5720 5727 5734 5741 5747 5753 5759 5764 5770 5775 5780 5785 5789 5793 5797 5801 5804 5806 5809 5812 5815 5817 5819 5821 5823
5622 5623 5624 5627 5630 5634 5638 5643 5648 5653 5658 5663 5669 5676 5682 5688 5693 5700 5708 5715 5722 5729 5735 5741 5746 5752 5757 5763 5768 5772 5777 5781 5785 5789 5792 5796 5798 5801 5804 5807 5809 5811 5813 5815
5622 5623 5624 5627 5630 5634 5638 5642 5647 5652 5656 5661 5666 5672 5679 5683 5689 5696 5703 5709 5716 5723 5728 5734 5740 5745 5751 5756 5760 5765 5769 5773 5777 5780 5784 5788 5791 5794 5797 5799 5800 5803 5804 5806
5622 5622 5624 5627 5630 5633 5637 5641 5646 5650 5654 5659 5663 5668 5675 5679 5685 5692 5698 5704 5710 5716 5721 5727 5732 5738 5743 5748 5752 5756 5760 5764 5768 5772 5776 5779 5783 5786 5788 5790 5792 5794 5795 5797
5624 5623 5625 5627 5629 5632 5636 5640 5644 5647 5651 5657 5661 5665 5672 5676 5682 5688 5693 5698 5703 5708 5713 5719 5724 5729 5734 5739 5744 5747 5751 5755 5759 5763 5766 5769 5773 5776 5778 5780 5782 5784 5786 5787
5626 5626 5626 5628 5630 5633 5636 5640 5643 5646 5649 5653 5658 5661 5669 5673 5677 5681 5686 5690 5695 5700 5705 5710 5715 5720 5726 5730 5734 5738 5742 5746 5750 5753 5757 5760 5763 5766 5768 5771 5773 5775 5777 5778
5628 5628 5628 5629 5631 5633 5636 5639 5643 5646 5648 5651 5654 5658 5665 5667 5671 5675 5678 5682 5687 5692 5697 5702 5707 5711 5716 5721 5725 5729 5733 5736 5740 5743 5747 5750 5753 5756 5758 5761 5763 5765 5766 5768
5631 5631 5630 5630 5632 5634 5636 5639 5642 5645 5646 5649 5651 5655 5660 5662 5665 5668 5672 5676 5680 5684 5689 5693 5697 5702 5706 5711 5715 5719 5722 5726 5730 5733 5736 5739 5742 5745 5748 5750 5752 5754 5756 5757
5634 5633 5633 5633 5634 5636 5638 5639 5641 5643 5645 5647 5649 5652 5655 5657 5659 5662 5666 5669 5673 5676 5680 5684 5688 5692 5696 5700 5704 5708 5712 5716 5719 5723 5726 5729 5732 5735 5737 5740 5742 5743 5745 5746
5637 5636 5636 5635 5636 5637 5638 5640 5641 5642 5643 5645 5646 5651 5651 5652 5654 5656 5659 5662 5665 5668 5671 5674 5678 5682 5686 5690 5694 5698 5701 5705 5709 5712 5715 5718 5721 5723 5726 5728 5730 5732 5733 5734
5639 5638 5638 5638 5638 5638 5639 5639 5640 5642 5642 5642 5643 5648 5646 5647 5648 5650 5652 5654 5657 5659 5662 5665 5668 5672 5675 5679 5683 5687 5691 5694 5698 5701 5704 5707 5709 5712 5715 5717 5719 5720 5721 5723
5641 5640 5640 5640 5641 5641 5640 5640 5640 5640 5640 5640 5640 5644 5642 5642 5642 5644 5645 5647 5649 5651 5654 5656 5659 5662 5665 5669 5672 5676 5679 5683 5687 5690 5693 5695 5698 5701 5703 5705 5707 5708 5710 5711
5641 5641 5641 5641 5640 5640 5640 5639 5639 5638 5638 5638 5638 5638 5638 5637 5636 5637 5638 5639 5641 5643 5644 5647 5649 5652 5655 5659 5662 5665 5669 5672 5675 5678 5681 5684 5687 5690 5692 5694 5695 5697 5698 5699
5642 5641 5641 5640 5639 5639 5638 5638 5637 5636 5636 5635 5634 5633 5633 5631 5631 5631 5631 5632 5633 5635 5636 5638 5640 5643 5646 5649 5652 5655 5658 5661 5665 5668 5671 5674 5676 5678 5681 5682 5684 5685 5687 5688
5641 5641 5640 5640 5639 5638 5637 5636 5635 5634 5633 5632 5630 5629 5627 5626 5625 5625 5625 5625 5626 5627 5628 5629 5631 5634 5636 5639 5642 5645 5648 5651 5654 5657 5660 5663 5666 5668 5670 5672 5673 5674 5675 5676
5640 5639 5639 5638 5637 5636 5636 5634 5632 5631 5630 5628 5626 5625 5622 5621 5620 5619 5619 5618 5618 5619 5620 5621 5623 5625 5627 5630 5632 5635 5638 5641 5644 5648 5650 5653 5655 5657 5659 5661 5662 5663 5664 5665
5638 5637 5636 5635 5635 5634 5635 5631 5629 5627 5626 5624 5622 5620 5618 5616 5614 5613 5613 5612 5611 5612 5612 5613 5615 5617 5619 5621 5623 5626 5629 5632 5635 5638 5640 5643 5645 5647 5648 5650 5651 5652 5653 5654
5636 5635 5634 5633 5631 5630 5630 5627 5625 5624 5622 5619 5617 5615 5613 5610 5609 5609 5607 5605 5605 5605 5605 5606 5607 5609 5610 5612 5614 5616 5619 5622 5625 5627 5630 5632 5634 5636 5638 5639 5640 5641 5642 5643
5633 5632 5631 5629 5627 5626 5627 5623 5621 5620 5617 5615 5612 5609 5607 5605 5604 5604 5602 5600 5599 5598 5599 5599 5600 5601 5602 5604 5606 5608 5610 5612 5615 5617 5620 5622 5624 5626 5627 5628 5630 5630 5631 5632
5629 5628 5627 5625 5623 5622 5621 5618 5616 5615 5613 5609 5606 5604 5602 5599 5598 5596 5594 5594 5593 5592 5592 5592 5592 5593 5594 5596 5597 5599 5601 5603 5605 5607 5610 5611 5613 5615 5616 5618 5619 5620 5621 5621
5626 5624 5622 5620 5618 5619 5615 5612 5611 5609 5605 5603 5600 5598 5595 5593 5591 5589 5587 5586 5585 5585 5584 5584 5584 5585 5586 5587 5589 5590 5592 5594 5596 5598 5600 5601 5603 5604 5606 5607 5608 5609 5610 5610
5622 5621 5618 5616 5616 5612 5609 5606 5604 5601 5599 5596 5593 5591 5588 5586 5584 5582 5580 5579 5578 5577 5576 5576 5576 5577 5578 5579 5580 5582 5583 5585 5587 5588 5590 5591 5593 5594 5596 5597 5598 5598 5599 5599
5618 5615 5613 5610 5608 5605 5603 5600 5597 5594 5591 5588 5586 5583 5580 5578 5576 5574 5573 5571 5570 5569 5568 5567 5567 5568 5570 5571 5572 5573 5575 5576 5577 5579 5580 5582 5583 5584 5585 5586 5587 5588 5588 5589
5614 5610 5607 5605 5602 5599 5596 5593 5590 5587 5583 5580 5578 5575 5572 5570 5568 5566 5564 5563 5561 5560 5559 5559 5559 5560 5561 5562 5563 5565 5566 5567 5568 5570 5571 5572 5573 5574 5575 5576 5577 5577 5578 5578
5608 5605 5602 5600 5596 5593 5590 5586 5582 5579 5575 5572 5569 5567 5564 5561 5559 5557 5555 5553 5552 5551 5550 5550 5551 5551 5552 5554 5555 5556 5557 5558 5559 5560 5561 5563 5564 5565 5566 5566 5567 5567 5568 5568